Location: Monteux
(44.0348°N, 4.9972°E)
Time: 06:52:33
(UTC+00:00)

X-37B - Pass Details

Date: 26 September 2021
Orbit: 385 x 389 km, 45.0° (Epoch: 13 October)

Event Time Altitude Azimuth Distance (km) Brightness Sun altitude
Exits shadow 04:17:33 30° 268° (W) 719 1.3 -14.1°
Maximum altitude 04:18:57 80° 351° (N) 397 0.5 -13.9°
Drops below altitude 10° 04:22:08 10° 79° (E) 1,416 4.9 -13.3°
Sets 04:24:13 0° 81° (E) 2,272 6.6 -12.9°
